SCOUT X-4 DEB, 2986

Orbit data source: Space-Track

SCOUT X-4 DEB, 2986 is space debris in LEO originally from a launch on Thu, 04 Jun 1964 UTC launched from the Air Force Western Test Range (AFWTR). Debris objects in space refer to the collection of defunct objects orbiting the Earth. Examples of debris include non-operational satellites, rocket bodies, and fragments generated from explosions, collisions, or faulty payload assembly.

Loading next visibility...
Identifier
2986, 1964-026E
Orbit
LEO
Last TLE update
20 hours ago
Origin
Manufacturer
Unknown
Mission
Spacecraft
Bus & Motor
Unknown
Mass
Unknown
Launch date (UTC)
1964-06-04 (61 years ago)
Launch vehicle
Unknown
Launch site
Air Force Western Test Range (AFWTR)
Object type
Payload
Rocket body
Debris
Shape & HBR
Unknown
Radar Cross Section
Small (<0.1 m²)

Expand to show TLE details & history

TLE from 20 hours ago
0 SCOUT X-4 DEB
1 02986U 64026E   25181.91665434  .00000222  00000-0  12819-3 0  9998
2 02986  90.4704 173.7929 0043592 262.1249  97.4985 14.06344445125092
Epoch: 2025-06-30T21:59Z
TLE epoch observation values (Epoch: 2025-06-30T21:59:58.934Z)
Latitude
0.00002°
Longitude
-75.42225°
Altitude
879.203 km
Speed
7.41 km/s
True Right ascension
11h 35m 10s
True Declination
0° 00' 00"
Sunlit
Object was in daylight at epoch
Visualization orbit readout
Latitude
-23.11867°
Longitude
104.4209°
Altitude
863.193 km
Speed
7.429 km/s
Apparent Right ascension
21h 05m 48s
Apparent Declination
-40° 25' 45"
Sunlit
Object is in daylight
Visualization observer readout
Local Sidereal Time
05:24:37
Azimuth
250.688° W
Elevation
-48.465°
Doppler factor
1
Orbital elements
Apogee altitude
900.468 km
Perigee altitude
837.285 km
Semi-major axis
7,247.014 km
Eccentricity
0.00436
Inclination
90.4704°
RAAN
173.7929°
Arg. of periapsis
262.1249°
True anomaly
Unknown
Mean anomaly
97.4985°
Eccentric anomaly
Unknown
Mean motion
3.51807 °/min
Orbital period
102.33 mins
BSTAR
0.00012819
Loading maneuver chart data...
Loading SW <> Apogee altitude chart data...
Loading historical data...
Loading historical data...
Loading historical data...
Loading historical data...
Loading historical data...
Loading historical data...
Loading historical data...

SCOUT X-4 DEB Visibility forecast

Observer location: undefined°, undefined°

Span
Click to sort rows by Start time (UTC) header in descending order
Start Az.
Max El. time (UTC)
Max El. Az.
Max El.
End time (UTC)
End Az.
10 mins2025-07-01 23:43:58.884Z171.285° S2025-07-01 23:47:58.884Z129.373° SE44.508°2025-07-01 23:53:58.884Z359.09° N
6 mins2025-07-02 10:28:58.884Z50.998° ENE2025-07-02 10:30:58.884Z74.231° E16.289°2025-07-02 10:34:58.884Z119.236° SE
9 mins2025-07-02 12:09:58.884Z351.703° N2025-07-02 12:13:58.884Z280.408° WNW41.231°2025-07-02 12:18:58.884Z199.474° SSW
|